Погода в Дукате

Россия / Магаданская область     62°34′30″N   155°22′36″E
темп.,
°C
ветер,
м/с
пор.,
м/с
влажн.,
%
обл.,
%
осадки,
мм/ч
давл.,
гПа
погр.,
м
11 мая, вт
вт1123:00−3с0087100 0.1 101710
02:00−3с1179100 0.0 101710
05:00−6с118698 0.0 101810
08:00−3ссв118395 0.0 1018224
11:00−3с1190100 0.2 1018355
14:00−2ссв129599 0.5 1017374
17:00−2ссв229195 1.1 1017345
20:00−3ссв229783 0.4 101833
12 мая, ср
ср1223:00−8сз229867 0.6 102012
02:00−9зсз219784 0.0 102010
05:00−7сз1296100 0.1 101942
08:00−4ссз2489100 0.1 1018424
11:00−3с3484100 0.3 1017731
14:00−2с338898 0.2 1016552
17:00−2ссв238699 0.6 1016459
20:00−4с229583 0.2 101627
13 мая, чт
чт1323:00−7з119777 0.3 101710
02:00−9з119971 0.0 101610
05:00−10зюз229752 0.0 101611
08:00−5ююв2285100 0.0 1013139
11:00−2юв2277100 0.0 1011330
14:00−1юв2478100 0.0 1009415
17:000юв2475100 0.0 1008418
20:00−2юв2284100 0.0 100856
14 мая, пт
пт1423:00−4юв2292100 0.0 100954
02:00−4юв2395100 0.3 1009148
05:00−5юв2396100 2.4 1009176
08:00−4юв2395100 1.5 1010245
11:00−3юв2394100 2.8 1011357
14:00−2ююв2297100 1.1 1011335
17:00−2зсз2293100 2.3 1012410
20:00−4зсз229699 0.5 101478
15 мая, сб
сб1523:00−6зсз219799 0.6 101613
02:00−8зсз219858 0.0 101812
05:00−8зсз219863 0.0 101914
08:00−4зсз118759 0.0 1018163
11:00−2юз018089 0.0 1018493
14:00−1ююз227864 0.0 1018623
17:000ююз237514 0.0 1018536
20:00−2ю22835 0.0 101919